Location: Buckland
(65.9785°N, 161.1281°W)
Time: 18:49:13
(UTC+00:00)

Explorer 7 - Pass Details

Date: 04 December 2020
Orbit: 484 x 678 km, 50.3° (Epoch: 16 January)

Event Time Altitude Azimuth Distance (km) Brightness Sun altitude
Rises 12:53:50 0° 226° (SW) 2,918 - -41.0°
Reaches altitude 10° 12:58:19 10° 186° (S) 1,952 - -40.7°
Maximum altitude 12:59:03 10° 176° (S) 1,919 - -40.7°
Drops below altitude 10° 12:59:46 10° 167° (SSE) 1,932 - -40.6°
Sets 13:04:03 0° 126° (SE) 2,768 - -40.3°
